Year,Month,Day,Hour,Minute,Value (Times are PST for temperature in C)
2019,07,05,00,00,17.10
2019,07,05,00,01,17.10
2019,07,05,00,02,17.10
2019,07,05,00,03,17.10
2019,07,05,00,04,17.10
2019,07,05,00,05,17.10
2019,07,05,00,06,17.10
2019,07,05,00,07,17.10
2019,07,05,00,08,17.10
2019,07,05,00,09,17.10
2019,07,05,00,10,17.10
2019,07,05,00,11,17.10
2019,07,05,00,12,17.10
2019,07,05,00,13,17.10
2019,07,05,00,14,17.10
2019,07,05,00,15,17.10
2019,07,05,00,16,17.10
2019,07,05,00,17,17.10
2019,07,05,00,18,17.10
2019,07,05,00,19,17.00
2019,07,05,00,20,17.00
2019,07,05,00,21,17.00
2019,07,05,00,22,17.10
2019,07,05,00,23,17.10
2019,07,05,00,24,17.10
2019,07,05,00,25,17.10
2019,07,05,00,26,17.10
2019,07,05,00,27,17.10
2019,07,05,00,28,17.10
2019,07,05,00,29,17.10
2019,07,05,00,30,17.10
2019,07,05,00,31,17.10
2019,07,05,00,32,17.10
2019,07,05,00,33,17.10
2019,07,05,00,34,17.10
2019,07,05,00,35,17.10
2019,07,05,00,36,17.10
2019,07,05,00,37,17.10
2019,07,05,00,38,17.10
2019,07,05,00,39,17.00
2019,07,05,00,40,17.00
2019,07,05,00,41,17.00
2019,07,05,00,42,17.00
2019,07,05,00,43,17.00
2019,07,05,00,44,17.00
2019,07,05,00,45,17.00
2019,07,05,00,46,17.00
2019,07,05,00,47,17.00
2019,07,05,00,48,17.00
2019,07,05,00,49,17.00
2019,07,05,00,50,17.00
2019,07,05,00,51,17.00
2019,07,05,00,52,17.00
2019,07,05,00,53,17.00
2019,07,05,00,54,17.00
2019,07,05,00,55,17.00
2019,07,05,00,56,17.00
2019,07,05,00,57,17.00
2019,07,05,00,58,17.00
2019,07,05,00,59,16.90
2019,07,05,01,00,17.00
2019,07,05,01,01,17.00
2019,07,05,01,02,17.00
2019,07,05,01,03,17.00
2019,07,05,01,04,16.90
2019,07,05,01,05,16.90
2019,07,05,01,06,16.90
2019,07,05,01,07,16.90
2019,07,05,01,08,16.90
2019,07,05,01,09,16.90
2019,07,05,01,10,16.90
2019,07,05,01,11,16.90
2019,07,05,01,12,16.90
2019,07,05,01,13,16.90
2019,07,05,01,14,16.90
2019,07,05,01,15,16.90
2019,07,05,01,16,16.90
2019,07,05,01,17,16.90
2019,07,05,01,18,16.90
2019,07,05,01,19,16.90
2019,07,05,01,20,16.90
2019,07,05,01,21,16.90
2019,07,05,01,22,16.90
2019,07,05,01,23,16.90
2019,07,05,01,24,16.90
2019,07,05,01,25,16.90
2019,07,05,01,26,16.90
2019,07,05,01,27,16.90
2019,07,05,01,28,16.90
2019,07,05,01,29,16.90
2019,07,05,01,30,16.90
2019,07,05,01,31,16.90
2019,07,05,01,32,16.90
2019,07,05,01,33,16.80
2019,07,05,01,34,16.80
2019,07,05,01,35,16.80
2019,07,05,01,36,16.80
2019,07,05,01,37,16.80
2019,07,05,01,38,16.80
2019,07,05,01,39,16.80
2019,07,05,01,40,16.80
2019,07,05,01,41,16.80
2019,07,05,01,42,16.80
2019,07,05,01,43,16.80
2019,07,05,01,44,16.80
2019,07,05,01,45,16.80
2019,07,05,01,46,16.80
2019,07,05,01,47,16.80
2019,07,05,01,48,16.80
2019,07,05,01,49,16.80
2019,07,05,01,50,16.80
2019,07,05,01,51,16.70
2019,07,05,01,52,16.80
2019,07,05,01,53,16.80
2019,07,05,01,54,16.80
2019,07,05,01,55,16.80
2019,07,05,01,56,16.80
2019,07,05,01,57,16.80
2019,07,05,01,58,16.80
2019,07,05,01,59,16.70
2019,07,05,02,00,16.70
2019,07,05,02,01,16.70
2019,07,05,02,02,16.70
2019,07,05,02,03,16.70
2019,07,05,02,04,16.70
2019,07,05,02,05,16.70
2019,07,05,02,06,16.70
2019,07,05,02,07,16.60
2019,07,05,02,08,16.60
2019,07,05,02,09,16.60
2019,07,05,02,10,16.60
2019,07,05,02,11,16.60
2019,07,05,02,12,16.60
2019,07,05,02,13,16.70
2019,07,05,02,14,16.70
2019,07,05,02,15,16.70
2019,07,05,02,16,16.70
2019,07,05,02,17,16.70
2019,07,05,02,18,16.70
2019,07,05,02,19,16.70
2019,07,05,02,20,16.70
2019,07,05,02,21,16.70
2019,07,05,02,22,16.60
2019,07,05,02,23,16.60
2019,07,05,02,24,16.60
2019,07,05,02,25,16.60
2019,07,05,02,26,16.60
2019,07,05,02,27,16.50
2019,07,05,02,28,16.50
2019,07,05,02,29,16.50
2019,07,05,02,30,16.40
2019,07,05,02,31,16.40
2019,07,05,02,32,16.40
2019,07,05,02,33,16.40
2019,07,05,02,34,16.40
2019,07,05,02,35,16.40
2019,07,05,02,36,16.40
2019,07,05,02,37,16.40
2019,07,05,02,38,16.40
2019,07,05,02,39,16.40
2019,07,05,02,40,16.40
2019,07,05,02,41,16.40
2019,07,05,02,42,16.40
2019,07,05,02,43,16.40
2019,07,05,02,44,16.40
2019,07,05,02,45,16.40
2019,07,05,02,46,16.40
2019,07,05,02,47,16.40
2019,07,05,02,48,16.40
2019,07,05,02,49,16.40
2019,07,05,02,50,16.40
2019,07,05,02,51,16.40
2019,07,05,02,52,16.40
2019,07,05,02,53,16.40
2019,07,05,02,54,16.40
2019,07,05,02,55,16.40
2019,07,05,02,56,16.40
2019,07,05,02,57,16.40
2019,07,05,02,58,16.40
2019,07,05,02,59,16.40
2019,07,05,03,00,16.40
2019,07,05,03,01,16.40
2019,07,05,03,02,16.40
2019,07,05,03,03,16.40
2019,07,05,03,04,16.40
2019,07,05,03,05,16.40
2019,07,05,03,06,16.40
2019,07,05,03,07,16.40
2019,07,05,03,08,16.40
2019,07,05,03,09,16.40
2019,07,05,03,10,16.40
2019,07,05,03,11,16.40
2019,07,05,03,12,16.40
2019,07,05,03,13,16.40
2019,07,05,03,14,16.40
2019,07,05,03,15,16.40
2019,07,05,03,16,16.40
2019,07,05,03,17,16.40
2019,07,05,03,18,16.40
2019,07,05,03,19,16.40
2019,07,05,03,20,16.40
2019,07,05,03,21,16.40
2019,07,05,03,22,16.40
2019,07,05,03,23,16.40
2019,07,05,03,24,16.40
2019,07,05,03,25,16.40
2019,07,05,03,26,16.40
2019,07,05,03,27,16.40
2019,07,05,03,28,16.40
2019,07,05,03,29,16.40
2019,07,05,03,30,16.40
2019,07,05,03,31,16.40
2019,07,05,03,32,16.40
2019,07,05,03,33,16.40
2019,07,05,03,34,16.40
2019,07,05,03,35,16.40
2019,07,05,03,36,16.40
2019,07,05,03,37,16.40
2019,07,05,03,38,16.40
2019,07,05,03,39,16.40
2019,07,05,03,40,16.40
2019,07,05,03,41,16.30
2019,07,05,03,42,16.30
2019,07,05,03,43,16.30
2019,07,05,03,44,16.30
2019,07,05,03,45,16.30
2019,07,05,03,46,16.30
2019,07,05,03,47,16.30
2019,07,05,03,48,16.30
2019,07,05,03,49,16.30
2019,07,05,03,50,16.30
2019,07,05,03,51,16.20
2019,07,05,03,52,16.20
2019,07,05,03,53,16.20
2019,07,05,03,54,16.20
2019,07,05,03,55,16.20
2019,07,05,03,56,16.20
2019,07,05,03,57,16.20
2019,07,05,03,58,16.20
2019,07,05,03,59,16.20
2019,07,05,04,00,16.20
2019,07,05,04,01,16.20
2019,07,05,04,02,16.20
2019,07,05,04,03,16.20
2019,07,05,04,04,16.20
2019,07,05,04,05,16.20
2019,07,05,04,06,16.20
2019,07,05,04,07,16.20
2019,07,05,04,08,16.20
2019,07,05,04,09,16.20
2019,07,05,04,10,16.20
2019,07,05,04,11,16.20
2019,07,05,04,12,16.20
2019,07,05,04,13,16.20
2019,07,05,04,14,16.20
2019,07,05,04,15,16.20
2019,07,05,04,16,16.20
2019,07,05,04,17,16.20
2019,07,05,04,18,16.20
2019,07,05,04,19,16.20
2019,07,05,04,20,16.20
2019,07,05,04,21,16.20
2019,07,05,04,22,16.20
2019,07,05,04,23,16.20
2019,07,05,04,24,16.20
2019,07,05,04,25,16.20
2019,07,05,04,26,16.20
2019,07,05,04,27,16.20
2019,07,05,04,28,16.20
2019,07,05,04,29,16.20
2019,07,05,04,30,16.20
2019,07,05,04,31,16.20
2019,07,05,04,32,16.20
2019,07,05,04,33,16.10
2019,07,05,04,34,16.20
2019,07,05,04,35,16.10
2019,07,05,04,36,16.10
2019,07,05,04,37,16.10
2019,07,05,04,38,16.10
2019,07,05,04,39,16.10
2019,07,05,04,40,16.10
2019,07,05,04,41,16.10
2019,07,05,04,42,16.10
2019,07,05,04,43,16.10
2019,07,05,04,44,16.10
2019,07,05,04,45,16.10
2019,07,05,04,46,16.10
2019,07,05,04,47,16.10
2019,07,05,04,48,16.10
2019,07,05,04,49,16.10
2019,07,05,04,50,16.10
2019,07,05,04,51,16.10
2019,07,05,04,52,16.10
2019,07,05,04,53,16.10
2019,07,05,04,54,16.10
2019,07,05,04,55,16.10
2019,07,05,04,56,16.00
2019,07,05,04,57,16.00
2019,07,05,04,58,16.00
2019,07,05,04,59,16.00
2019,07,05,05,00,16.00
2019,07,05,05,01,16.00
2019,07,05,05,02,16.00
2019,07,05,05,03,16.00
2019,07,05,05,04,16.00
2019,07,05,05,05,16.00
2019,07,05,05,06,16.00
2019,07,05,05,07,16.00
2019,07,05,05,08,16.00
2019,07,05,05,09,16.00
2019,07,05,05,10,16.00
2019,07,05,05,11,16.00
2019,07,05,05,12,15.90
2019,07,05,05,13,15.90
2019,07,05,05,14,15.90
2019,07,05,05,15,15.90
2019,07,05,05,16,15.90
2019,07,05,05,17,15.90
2019,07,05,05,18,16.00
2019,07,05,05,19,16.00
2019,07,05,05,20,16.00
2019,07,05,05,21,16.00
2019,07,05,05,22,16.00
2019,07,05,05,23,16.00
2019,07,05,05,24,15.90
2019,07,05,05,25,15.90
2019,07,05,05,26,15.90
2019,07,05,05,27,15.90
2019,07,05,05,28,15.90
2019,07,05,05,29,15.90
2019,07,05,05,30,15.90
2019,07,05,05,31,15.90
2019,07,05,05,32,15.90
2019,07,05,05,33,15.90
2019,07,05,05,34,15.90
2019,07,05,05,35,15.90
2019,07,05,05,36,15.90
2019,07,05,05,37,15.90
2019,07,05,05,38,15.90
2019,07,05,05,39,15.90
2019,07,05,05,40,15.90
2019,07,05,05,41,15.90
2019,07,05,05,42,15.90
2019,07,05,05,43,15.90
2019,07,05,05,44,15.90
2019,07,05,05,45,15.90
2019,07,05,05,46,15.90
2019,07,05,05,47,15.90
2019,07,05,05,48,15.90
2019,07,05,05,49,15.90
2019,07,05,05,50,15.90
2019,07,05,05,51,15.90
2019,07,05,05,52,15.90
2019,07,05,05,53,15.90
2019,07,05,05,54,15.90
2019,07,05,05,55,15.90
2019,07,05,05,56,15.90
2019,07,05,05,57,15.90
2019,07,05,05,58,15.90
2019,07,05,05,59,15.90
2019,07,05,06,00,15.90
2019,07,05,06,01,15.90
2019,07,05,06,02,15.90
2019,07,05,06,03,15.90
2019,07,05,06,04,15.90
2019,07,05,06,05,15.90
2019,07,05,06,06,15.90
2019,07,05,06,07,15.90
2019,07,05,06,08,16.00
2019,07,05,06,09,16.00
2019,07,05,06,10,16.00
2019,07,05,06,11,16.00
2019,07,05,06,12,16.00
2019,07,05,06,13,16.00
2019,07,05,06,14,16.00
2019,07,05,06,15,16.00
2019,07,05,06,16,16.00
2019,07,05,06,17,16.00
2019,07,05,06,18,16.00
2019,07,05,06,19,16.00
2019,07,05,06,20,16.00
2019,07,05,06,21,16.00
2019,07,05,06,22,16.00
2019,07,05,06,23,16.00
2019,07,05,06,24,16.00
2019,07,05,06,25,16.00
2019,07,05,06,26,16.00
2019,07,05,06,27,16.00
2019,07,05,06,28,16.00
2019,07,05,06,29,16.00
2019,07,05,06,30,16.00
2019,07,05,06,31,16.00
2019,07,05,06,32,16.00
2019,07,05,06,33,16.00
2019,07,05,06,34,16.00
2019,07,05,06,35,16.10
2019,07,05,06,36,16.10
2019,07,05,06,37,16.10
2019,07,05,06,38,16.10
2019,07,05,06,39,16.10
2019,07,05,06,40,16.10
2019,07,05,06,41,16.10
2019,07,05,06,42,16.10
2019,07,05,06,43,16.10
2019,07,05,06,44,16.10
2019,07,05,06,45,16.10
2019,07,05,06,46,16.10
2019,07,05,06,47,16.10
2019,07,05,06,48,16.10
2019,07,05,06,49,16.10
2019,07,05,06,50,16.10
2019,07,05,06,51,16.10
2019,07,05,06,52,16.00
2019,07,05,06,53,16.00
2019,07,05,06,54,16.10
2019,07,05,06,55,16.10
2019,07,05,06,56,16.10
2019,07,05,06,57,16.10
2019,07,05,06,58,16.10
2019,07,05,06,59,16.10
2019,07,05,07,00,16.10
2019,07,05,07,01,16.10
2019,07,05,07,02,16.10
2019,07,05,07,03,16.10
2019,07,05,07,04,16.10
2019,07,05,07,05,16.00
2019,07,05,07,06,16.00
2019,07,05,07,07,16.00
2019,07,05,07,08,16.00
2019,07,05,07,09,16.00
2019,07,05,07,10,16.00
2019,07,05,07,11,16.00
2019,07,05,07,12,16.00
2019,07,05,07,13,16.00
2019,07,05,07,14,16.00
2019,07,05,07,15,16.00
2019,07,05,07,16,16.10
2019,07,05,07,17,16.10
2019,07,05,07,18,16.10
2019,07,05,07,19,16.10
2019,07,05,07,20,16.10
2019,07,05,07,21,16.10
2019,07,05,07,22,16.10
2019,07,05,07,23,16.10
2019,07,05,07,24,16.10
2019,07,05,07,25,16.10
2019,07,05,07,26,16.10
2019,07,05,07,27,16.10
2019,07,05,07,28,16.10
2019,07,05,07,29,16.10
2019,07,05,07,30,16.10
2019,07,05,07,31,16.10
2019,07,05,07,32,16.10
2019,07,05,07,33,16.10
2019,07,05,07,34,16.10
2019,07,05,07,35,16.10
2019,07,05,07,36,16.10
2019,07,05,07,37,16.10
2019,07,05,07,38,16.10
2019,07,05,07,39,16.10
2019,07,05,07,40,16.10
2019,07,05,07,41,16.10
2019,07,05,07,42,16.10
2019,07,05,07,43,16.20
2019,07,05,07,44,16.20
2019,07,05,07,45,16.20
2019,07,05,07,46,16.20
2019,07,05,07,47,16.20
2019,07,05,07,48,16.20
2019,07,05,07,49,16.20
2019,07,05,07,50,16.20
2019,07,05,07,51,16.20
2019,07,05,07,52,16.20
2019,07,05,07,53,16.20
2019,07,05,07,54,16.20
2019,07,05,07,55,16.20
2019,07,05,07,56,16.20
2019,07,05,07,57,16.20
2019,07,05,07,58,16.20
2019,07,05,07,59,16.30
2019,07,05,08,00,16.30
2019,07,05,08,01,16.30
2019,07,05,08,02,16.30
2019,07,05,08,03,16.30
2019,07,05,08,04,16.40
2019,07,05,08,05,16.40
2019,07,05,08,06,16.40
2019,07,05,08,07,16.40
2019,07,05,08,08,16.40
2019,07,05,08,09,16.40
2019,07,05,08,10,16.40
2019,07,05,08,11,16.40
2019,07,05,08,12,16.50
2019,07,05,08,13,16.50
2019,07,05,08,14,16.50
2019,07,05,08,15,16.50
2019,07,05,08,16,16.60
2019,07,05,08,17,16.60
2019,07,05,08,18,16.60
2019,07,05,08,19,16.70
2019,07,05,08,20,16.70
2019,07,05,08,21,16.70
2019,07,05,08,22,16.70
2019,07,05,08,23,16.80
2019,07,05,08,24,16.80
2019,07,05,08,25,16.80
2019,07,05,08,26,16.90
2019,07,05,08,27,16.90
2019,07,05,08,28,16.90
2019,07,05,08,29,17.00
2019,07,05,08,30,17.00
2019,07,05,08,31,17.00
2019,07,05,08,32,16.90
2019,07,05,08,33,17.00
2019,07,05,08,34,17.00
2019,07,05,08,35,17.10
2019,07,05,08,36,17.10
2019,07,05,08,37,17.10
2019,07,05,08,38,17.00
2019,07,05,08,39,17.00
2019,07,05,08,40,17.00
2019,07,05,08,41,17.00
2019,07,05,08,42,17.00
2019,07,05,08,43,17.10
2019,07,05,08,44,17.10
2019,07,05,08,45,17.10
2019,07,05,08,46,17.10
2019,07,05,08,47,17.10
2019,07,05,08,48,17.10
2019,07,05,08,49,17.10
2019,07,05,08,50,17.10
2019,07,05,08,51,17.10
2019,07,05,08,52,17.10
2019,07,05,08,53,17.10
2019,07,05,08,54,17.20
2019,07,05,08,55,17.20
2019,07,05,08,56,17.20
2019,07,05,08,57,17.20
2019,07,05,08,58,17.20
2019,07,05,08,59,17.20
2019,07,05,09,00,17.20
2019,07,05,09,01,17.20
2019,07,05,09,02,17.20
2019,07,05,09,03,17.20
2019,07,05,09,04,17.10
2019,07,05,09,05,17.10
2019,07,05,09,06,17.10
2019,07,05,09,07,17.00
2019,07,05,09,08,16.90
2019,07,05,09,09,16.90
2019,07,05,09,10,16.80
2019,07,05,09,11,16.80
2019,07,05,09,12,16.80
2019,07,05,09,13,16.80
2019,07,05,09,14,16.80
2019,07,05,09,15,16.80
2019,07,05,09,16,16.80
2019,07,05,09,17,16.80
2019,07,05,09,18,16.80
2019,07,05,09,19,16.80
2019,07,05,09,20,16.80
2019,07,05,09,21,16.90
2019,07,05,09,22,16.90
2019,07,05,09,23,16.90
2019,07,05,09,24,16.90
2019,07,05,09,25,17.00
2019,07,05,09,26,17.00
2019,07,05,09,27,17.00
2019,07,05,09,28,17.00
2019,07,05,09,29,17.10
2019,07,05,09,30,17.10
2019,07,05,09,31,17.10
2019,07,05,09,32,17.10
2019,07,05,09,33,17.10
2019,07,05,09,34,17.20
2019,07,05,09,35,17.20
2019,07,05,09,36,17.20
2019,07,05,09,37,17.30
2019,07,05,09,38,17.30
2019,07,05,09,39,17.30
2019,07,05,09,40,17.30
2019,07,05,09,41,17.40
2019,07,05,09,42,17.40
2019,07,05,09,43,17.40
2019,07,05,09,44,17.50
2019,07,05,09,45,17.50
2019,07,05,09,46,17.50
2019,07,05,09,47,17.60
2019,07,05,09,48,17.60
2019,07,05,09,49,17.60
2019,07,05,09,50,17.60
2019,07,05,09,51,17.70
2019,07,05,09,52,17.70
2019,07,05,09,53,17.70
2019,07,05,09,54,17.70
2019,07,05,09,55,17.70
2019,07,05,09,56,17.80
2019,07,05,09,57,17.80
2019,07,05,09,58,17.80
2019,07,05,09,59,17.80
2019,07,05,10,00,17.80
2019,07,05,10,01,17.80
2019,07,05,10,02,17.80
2019,07,05,10,03,17.70
2019,07,05,10,04,17.70
2019,07,05,10,05,17.70
2019,07,05,10,06,17.80
2019,07,05,10,07,17.80
2019,07,05,10,08,17.80
2019,07,05,10,09,17.80
2019,07,05,10,10,17.80
2019,07,05,10,11,17.90
2019,07,05,10,12,17.90
2019,07,05,10,13,17.90
2019,07,05,10,14,17.90
2019,07,05,10,15,17.90
2019,07,05,10,16,17.90
2019,07,05,10,17,17.90
2019,07,05,10,18,17.90
2019,07,05,10,19,17.90
2019,07,05,10,20,17.80
2019,07,05,10,21,17.80
2019,07,05,10,22,17.80
2019,07,05,10,23,17.80
2019,07,05,10,24,17.80
2019,07,05,10,25,17.80
2019,07,05,10,26,17.80
2019,07,05,10,27,17.90
2019,07,05,10,28,17.90
2019,07,05,10,29,17.90
2019,07,05,10,30,18.00
2019,07,05,10,31,18.00
2019,07,05,10,32,18.00
2019,07,05,10,33,18.00
2019,07,05,10,34,18.00
2019,07,05,10,35,18.00
2019,07,05,10,36,18.00
2019,07,05,10,37,18.00
2019,07,05,10,38,18.10
2019,07,05,10,39,18.10
2019,07,05,10,40,18.10
2019,07,05,10,41,18.10
2019,07,05,10,42,18.10
2019,07,05,10,43,18.10
2019,07,05,10,44,18.10
2019,07,05,10,45,18.10
2019,07,05,10,46,18.10
2019,07,05,10,47,18.10
2019,07,05,10,48,18.10
2019,07,05,10,49,18.10
2019,07,05,10,50,18.10
2019,07,05,10,51,18.10
2019,07,05,10,52,18.10
2019,07,05,10,53,18.10
2019,07,05,10,54,18.10
2019,07,05,10,55,18.10
2019,07,05,10,56,18.00
2019,07,05,10,57,18.00
2019,07,05,10,58,18.10
2019,07,05,10,59,18.10
2019,07,05,11,00,18.10
2019,07,05,11,01,18.10
2019,07,05,11,02,18.10
2019,07,05,11,03,18.10
2019,07,05,11,04,18.10
2019,07,05,11,05,18.10
2019,07,05,11,06,18.10
2019,07,05,11,07,18.10
2019,07,05,11,08,18.10
2019,07,05,11,09,18.20
2019,07,05,11,10,18.20
2019,07,05,11,11,18.30
2019,07,05,11,12,18.30
2019,07,05,11,13,18.40
2019,07,05,11,14,18.40
2019,07,05,11,15,18.40
2019,07,05,11,16,18.40
2019,07,05,11,17,18.50
2019,07,05,11,18,18.50
2019,07,05,11,19,18.60
2019,07,05,11,20,18.60
2019,07,05,11,21,18.70
2019,07,05,11,22,18.80
2019,07,05,11,23,18.80
2019,07,05,11,24,18.90
2019,07,05,11,25,19.00
2019,07,05,11,26,19.10
2019,07,05,11,27,19.10
2019,07,05,11,28,19.20
2019,07,05,11,29,19.20
2019,07,05,11,30,19.30
2019,07,05,11,31,19.40
2019,07,05,11,32,19.50
2019,07,05,11,33,19.50
2019,07,05,11,34,19.60
2019,07,05,11,35,19.60
2019,07,05,11,36,19.60
2019,07,05,11,37,19.60
2019,07,05,11,38,19.60
2019,07,05,11,39,19.70
2019,07,05,11,40,19.70
2019,07,05,11,41,19.70
2019,07,05,11,42,19.70
2019,07,05,11,43,19.60
2019,07,05,11,44,19.60
2019,07,05,11,45,19.60
2019,07,05,11,46,19.60
2019,07,05,11,47,19.60
2019,07,05,11,48,19.60
2019,07,05,11,49,19.50
2019,07,05,11,50,19.50
2019,07,05,11,51,19.40
2019,07,05,11,52,19.40
2019,07,05,11,53,19.40
2019,07,05,11,54,19.30
2019,07,05,11,55,19.30
2019,07,05,11,56,19.30
2019,07,05,11,57,19.30
2019,07,05,11,58,19.30
2019,07,05,11,59,19.30
2019,07,05,12,00,19.40
2019,07,05,12,01,19.40
2019,07,05,12,02,19.40
2019,07,05,12,03,19.40
2019,07,05,12,04,19.40
2019,07,05,12,05,19.30
2019,07,05,12,06,19.30
2019,07,05,12,07,19.30
2019,07,05,12,08,19.20
2019,07,05,12,09,19.20
2019,07,05,12,10,19.10
2019,07,05,12,11,19.00
2019,07,05,12,12,19.00
2019,07,05,12,13,18.90
2019,07,05,12,14,18.90
2019,07,05,12,15,19.00
2019,07,05,12,16,19.00
2019,07,05,12,17,19.10
2019,07,05,12,18,19.10
2019,07,05,12,19,19.10
2019,07,05,12,20,19.10
2019,07,05,12,21,19.10
2019,07,05,12,22,19.10
2019,07,05,12,23,19.20
2019,07,05,12,24,19.20
2019,07,05,12,25,19.30
2019,07,05,12,26,19.30
2019,07,05,12,27,19.40
2019,07,05,12,28,19.40
2019,07,05,12,29,19.50
2019,07,05,12,30,19.60
2019,07,05,12,31,19.60
2019,07,05,12,32,19.60
2019,07,05,12,33,19.70
2019,07,05,12,34,19.70
2019,07,05,12,35,19.70
2019,07,05,12,36,19.70
2019,07,05,12,37,19.70
2019,07,05,12,38,19.70
2019,07,05,12,39,19.70
2019,07,05,12,40,19.60
2019,07,05,12,41,19.50
2019,07,05,12,42,19.40
2019,07,05,12,43,19.40
2019,07,05,12,44,19.30
2019,07,05,12,45,19.30
2019,07,05,12,46,19.30
2019,07,05,12,47,19.30
2019,07,05,12,48,19.30
2019,07,05,12,49,19.30
2019,07,05,12,50,19.30
2019,07,05,12,51,19.30
2019,07,05,12,52,19.30
2019,07,05,12,53,19.20
2019,07,05,12,54,19.20
2019,07,05,12,55,19.20
2019,07,05,12,56,19.20
2019,07,05,12,57,19.20
2019,07,05,12,58,19.20
2019,07,05,12,59,19.20
2019,07,05,13,00,19.20
2019,07,05,13,01,19.20
2019,07,05,13,02,19.10
2019,07,05,13,03,19.10
2019,07,05,13,04,19.10
2019,07,05,13,05,19.10
2019,07,05,13,06,19.10
2019,07,05,13,07,19.10
2019,07,05,13,08,19.20
2019,07,05,13,09,19.20
2019,07,05,13,10,19.30
2019,07,05,13,11,19.30
2019,07,05,13,12,19.40
2019,07,05,13,13,19.40
2019,07,05,13,14,19.40
2019,07,05,13,15,19.40
2019,07,05,13,16,19.40
2019,07,05,13,17,19.40
2019,07,05,13,18,19.30
2019,07,05,13,19,19.20
2019,07,05,13,20,19.20
2019,07,05,13,21,19.10
2019,07,05,13,22,19.10
2019,07,05,13,23,19.10
2019,07,05,13,24,19.10
2019,07,05,13,25,19.10
2019,07,05,13,26,19.10
2019,07,05,13,27,19.10
2019,07,05,13,28,19.10
2019,07,05,13,29,19.10
2019,07,05,13,30,19.10
2019,07,05,13,31,19.10
2019,07,05,13,32,19.10
2019,07,05,13,33,19.10
2019,07,05,13,34,19.20
2019,07,05,13,35,19.20
2019,07,05,13,36,19.30
2019,07,05,13,37,19.40
2019,07,05,13,38,19.40
2019,07,05,13,39,19.50
2019,07,05,13,40,19.50
2019,07,05,13,41,19.50
2019,07,05,13,42,19.50
2019,07,05,13,43,19.50
2019,07,05,13,44,19.50
2019,07,05,13,45,19.60
2019,07,05,13,46,19.60
2019,07,05,13,47,19.70
2019,07,05,13,48,19.70
2019,07,05,13,49,19.70
2019,07,05,13,50,19.80
2019,07,05,13,51,19.80
2019,07,05,13,52,19.80
2019,07,05,13,53,19.70
2019,07,05,13,54,19.70
2019,07,05,13,55,19.70
2019,07,05,13,56,19.60
2019,07,05,13,57,19.40
2019,07,05,13,58,19.40
2019,07,05,13,59,19.30
2019,07,05,14,00,19.20
2019,07,05,14,01,19.10
2019,07,05,14,02,19.00
2019,07,05,14,03,19.00
2019,07,05,14,04,18.90
2019,07,05,14,05,18.90
2019,07,05,14,06,18.80
2019,07,05,14,07,18.80
2019,07,05,14,08,18.80
2019,07,05,14,09,18.90
2019,07,05,14,10,18.90
2019,07,05,14,11,18.90
2019,07,05,14,12,18.90
2019,07,05,14,13,19.00
2019,07,05,14,14,19.00
2019,07,05,14,15,19.10
2019,07,05,14,16,19.10
2019,07,05,14,17,19.10
2019,07,05,14,18,19.10
2019,07,05,14,19,19.20
2019,07,05,14,20,19.20
2019,07,05,14,21,19.20
2019,07,05,14,22,19.20
2019,07,05,14,23,19.30
2019,07,05,14,24,19.30
2019,07,05,14,25,19.30
2019,07,05,14,26,19.30
2019,07,05,14,27,19.40
2019,07,05,14,28,19.50
2019,07,05,14,29,19.60
2019,07,05,14,30,19.60
2019,07,05,14,31,19.50
2019,07,05,14,32,19.50
2019,07,05,14,33,19.50
2019,07,05,14,34,19.50
2019,07,05,14,35,19.50
2019,07,05,14,36,19.50
2019,07,05,14,37,19.50
2019,07,05,14,38,19.40
2019,07,05,14,39,19.40
2019,07,05,14,40,19.40
2019,07,05,14,41,19.40
2019,07,05,14,42,19.30
2019,07,05,14,43,19.30
2019,07,05,14,44,19.20
2019,07,05,14,45,19.10
2019,07,05,14,46,19.10
2019,07,05,14,47,19.10
2019,07,05,14,48,19.00
2019,07,05,14,49,19.00
2019,07,05,14,50,19.00
2019,07,05,14,51,18.90
2019,07,05,14,52,18.90
2019,07,05,14,53,18.90
2019,07,05,14,54,18.90
2019,07,05,14,55,18.90
2019,07,05,14,56,18.90
2019,07,05,14,57,18.90
2019,07,05,14,58,18.80
2019,07,05,14,59,18.80
2019,07,05,15,00,18.70
2019,07,05,15,01,18.70
2019,07,05,15,02,18.60
2019,07,05,15,03,18.60
2019,07,05,15,04,18.60
2019,07,05,15,05,18.70
2019,07,05,15,06,18.70
2019,07,05,15,07,18.60
2019,07,05,15,08,18.60
2019,07,05,15,09,18.60
2019,07,05,15,10,18.70
2019,07,05,15,11,18.70
2019,07,05,15,12,18.70
2019,07,05,15,13,18.60
2019,07,05,15,14,18.60
2019,07,05,15,15,18.50
2019,07,05,15,16,18.50
2019,07,05,15,17,18.40
2019,07,05,15,18,18.40
2019,07,05,15,19,18.40
2019,07,05,15,20,18.40
2019,07,05,15,21,18.30
2019,07,05,15,22,18.30
2019,07,05,15,23,18.30
2019,07,05,15,24,18.20
2019,07,05,15,25,18.20
2019,07,05,15,26,18.10
2019,07,05,15,27,18.10
2019,07,05,15,28,18.20
2019,07,05,15,29,18.20
2019,07,05,15,30,18.20
2019,07,05,15,31,18.20
2019,07,05,15,32,18.20
2019,07,05,15,33,18.20
2019,07,05,15,34,18.20
2019,07,05,15,35,18.20
2019,07,05,15,36,18.20
2019,07,05,15,37,18.20
2019,07,05,15,38,18.20
2019,07,05,15,39,18.20
2019,07,05,15,40,18.10
2019,07,05,15,41,18.10
2019,07,05,15,42,18.10
2019,07,05,15,43,18.10
2019,07,05,15,44,18.00
2019,07,05,15,45,18.00
2019,07,05,15,46,17.90
2019,07,05,15,47,17.90
2019,07,05,15,48,17.90
2019,07,05,15,49,17.90
2019,07,05,15,50,17.90
2019,07,05,15,51,17.90
2019,07,05,15,52,17.90
2019,07,05,15,53,17.80
2019,07,05,15,54,17.80
2019,07,05,15,55,17.80
2019,07,05,15,56,17.80
2019,07,05,15,57,17.70
2019,07,05,15,58,17.70
2019,07,05,15,59,17.60
2019,07,05,16,00,17.60
2019,07,05,16,01,17.60
2019,07,05,16,02,17.60
2019,07,05,16,03,17.60
2019,07,05,16,04,17.50
2019,07,05,16,05,17.50
2019,07,05,16,06,17.50
2019,07,05,16,07,17.50
2019,07,05,16,08,17.50
2019,07,05,16,09,17.60
2019,07,05,16,10,17.60
2019,07,05,16,11,17.60
2019,07,05,16,12,17.60
2019,07,05,16,13,17.50
2019,07,05,16,14,17.50
2019,07,05,16,15,17.40
2019,07,05,16,16,17.40
2019,07,05,16,17,17.30
2019,07,05,16,18,17.30
2019,07,05,16,19,17.30
2019,07,05,16,20,17.30
2019,07,05,16,21,17.30
2019,07,05,16,22,17.20
2019,07,05,16,23,17.20
2019,07,05,16,24,17.10
2019,07,05,16,25,17.00
2019,07,05,16,26,17.00
2019,07,05,16,27,16.90
2019,07,05,16,28,16.90
2019,07,05,16,29,16.80
2019,07,05,16,30,16.70
2019,07,05,16,31,16.70
2019,07,05,16,32,16.60
2019,07,05,16,33,16.50
2019,07,05,16,34,16.40
2019,07,05,16,35,16.40
2019,07,05,16,36,16.40
2019,07,05,16,37,16.40
2019,07,05,16,38,16.40
2019,07,05,16,39,16.30
2019,07,05,16,40,16.30
2019,07,05,16,41,16.30
2019,07,05,16,42,16.30
2019,07,05,16,43,16.30
2019,07,05,16,44,16.30
2019,07,05,16,45,16.30
2019,07,05,16,46,16.30
2019,07,05,16,47,16.30
2019,07,05,16,48,16.30
2019,07,05,16,49,16.30
2019,07,05,16,50,16.30
2019,07,05,16,51,16.30
2019,07,05,16,52,16.30
2019,07,05,16,53,16.30
2019,07,05,16,54,16.30
2019,07,05,16,55,16.20
2019,07,05,16,56,16.20
2019,07,05,16,57,16.20
2019,07,05,16,58,16.20
2019,07,05,16,59,16.20
2019,07,05,17,00,16.20
2019,07,05,17,01,16.20
2019,07,05,17,02,16.30
2019,07,05,17,03,16.30
2019,07,05,17,04,16.30
2019,07,05,17,05,16.30
2019,07,05,17,06,16.40
2019,07,05,17,07,16.40
2019,07,05,17,08,16.40
2019,07,05,17,09,16.50
2019,07,05,17,10,16.50
2019,07,05,17,11,16.50
2019,07,05,17,12,16.50
2019,07,05,17,13,16.50
2019,07,05,17,14,16.50
2019,07,05,17,15,16.50
2019,07,05,17,16,16.40
2019,07,05,17,17,16.40
2019,07,05,17,18,16.40
2019,07,05,17,19,16.40